{"data":{"norad_id":57771,"intl_designator":"2023-134A","name":"STARLINK-30397","alt_names":[],"object_type":"PAYLOAD","status":"ACTIVE","operator":null,"country":"US","launch_date":"2023-09-04","launch_site_code":"AFETR","launch_vehicle":null,"mission":null,"orbit_class":"UNKNOWN","rcs_meters":null,"size_class":null,"mass_kg":null,"dimensions":null,"purposes":["comms"],"wikipedia_slug":null,"has_3d_model":false,"image_url":null,"decayed_at":null,"tle_current":{"epoch":"2026-09-20T03:28:22.378944Z","epoch_age_seconds":179193,"freshness":"STALE","line1":"1 57771U 23134A   26263.14470346  .00000602  00000+0  31385-4 0  9999","line2":"2 57771  43.0021 176.5319 0000872 263.1605  96.9147 15.27580266169241","mean_motion":15.27580266,"eccentricity":8.72e-5,"inclination_deg":43.0021,"raan_deg":176.5319,"arg_perigee_deg":263.1605,"mean_anomaly_deg":96.9147,"bstar":3.1385e-5,"rev_number":16924,"period_min":94.266732298832,"perigee_km":482.45000418196,"apogee_km":483.6465948982,"semimajor_km":6861.1852995401,"source":"CELESTRAK","updated_at":"2026-09-21T09:00:33.683186Z"}}}